Miscellaneous Local Product
Issued by NWS North Platte, NE

Home | Current Version | Previous Version | Text Only | Print | Product List | Glossary On
Versions: 1 2 3 4 5 6 7 8 9 10 11 12 13 14 15 16 17 18 19 20 21 22 23 24 25 26 27 28 29 30 31 32 33 34 35 36 37 38 39 40 41 42 43 44 45 46 47 48 49 50
000
AXUS43 KLBF 211710
MISLBF


WESTERN AND NORTH CENTRAL NEBRASKA HOURLY WEATHER ROUNDUP
NATIONAL WEATHER SERVICE NORTH PLATTE NE
1200 PM CDT SAT OCT 21 2017

NOTE: "FAIR" INDICATES FEW OR NO CLOUDS BELOW 12,000 FEET WITH NO
SIGNIFICANT WEATHER AND/OR OBSTRUCTIONS TO VISIBILITY.

NOTE: STATIONS NOT REPORTING VARIABLES SUCH AS SKY/WEATHER OR
PRESSURE ARE PROVIDED BY RAWS AND APRS NETWORKS AND ARE NOT UNDER
NATIONAL WEATHER SERVICE QUALITY CONTROL.

...OBSERVATIONS IN AND NEAR THE EASTERN PANHANDLE OF NEBRASKA...

CITY           SKY/WX    TMP DP  RH WIND       PRES   REMARKS
PINE RIDGE     CLOUDY    51  31  46 W14G21    29.86R
GORDON         FAIR      48  34  59 W7        29.87R
CHADRON        CLOUDY    53  19  26 NW22G30   29.89R
ALLIANCE       SUNNY     52  22  30 NW23G31   29.90R
SIDNEY         SUNNY     52  21  29 NW24G32   29.94R
CRESCENT LAKE    N/A     53  25  33 NW16G26     N/A
$$

...OBSERVATIONS IN NORTHERN NEBRASKA AND FAR SOUTHERN SOUTH DAKOTA...

CITY           SKY/WX    TMP DP  RH WIND       PRES   REMARKS
WINNER         CLOUDY    48  41  76 NW16G25   29.79R
VALENTINE      LGT RAIN  48  39  71 NW15G24   29.84R
THEDFORD       RAIN      45  42  91 NW15      29.88R
AINSWORTH      LGT RAIN  45  40  84 NW18G28   29.83R
O`NEILL        CLOUDY    53  40  61 NW26G38   29.75R
ORD            CLOUDY    54  39  57 NW30G44   29.76R
BROKEN BOW     CLOUDY    51  37  58 NW29G40   29.83R
VALENTINE NWR    N/A     43  40  89 NW13G25     N/A
HALSEY           N/A     45  41  86 NW10G26     N/A
BUTTE            N/A     51  40  67 W23G39      N/A
CHAMBERS         N/A     53  38  56 NW6         N/A
EWING            N/A     54  42  65 NW16G24     N/A
$$

...OBSERVATIONS IN SOUTHWEST NEBRASKA AND FAR NORTHEAST COLORADO...

CITY           SKY/WX    TMP DP  RH WIND       PRES   REMARKS
WRAY           FAIR      54  27  35 NW24G32   29.93R
HOLYOKE        FAIR      55  27  33 NW23G33   29.92R
IMPERIAL       CLOUDY    52  36  54 NW17G24   29.90R
OGALLALA       MOSUNNY   55  32  41 NW26      29.89R
NORTH PLATTE   LGT RAIN  47  42  83 NW14      29.85F
MCCOOK         CLOUDY    55  38  52 NW23G41   29.86R
LEXINGTON      PTSUNNY   56  40  54 NW24G38   29.82R
STAPLETON        N/A     43  40  88 MISG        N/A
GOTHENBURG       N/A     53  38  57 NW18        N/A
CALLAWAY         N/A     51  40  67 NW29        N/A
$$

...OBSERVATIONS IN CENTRAL LINCOLN COUNTY AREA...

CITY           SKY/WX    TMP DP  RH WIND       PRES   REMARKS
N.P. AIRPORT   LGT RAIN  47  42  83 NW14      29.85F
N.P. DOWNTOWN    N/A     48  44  86 NW5         N/A
N.P. SOUTHEAST   N/A     46  41  84 N7          N/A
N.P. HILLCREST   N/A     48  44  87 NW14G22     N/A
$$

...SOME OBSERVATIONS FROM AROUND THE REGION...

CITY           SKY/WX    TMP DP  RH WIND       PRES   REMARKS
DENVER         MOSUNNY   50   8  18 NW20G29   30.02R
LIMON          SUNNY     50  18  28 NW31G37   29.98R
ASPEN          CLOUDY    34  24  67 N6        30.15R WCI  29
LARAMIE        SUNNY     35  17  47 W25G35    30.03R WCI  23
CASPER         SUNNY     45  13  27 MISG      29.98R
CHEYENNE       SUNNY     42  17  36 W35G44    29.98R
SCOTTSBLUFF    SUNNY     53  21  28 NW21G30   29.93R
GRAND ISLAND   CLOUDY    60  43  53 NW31G39   29.72R
OMAHA          CLOUDY    72  62  71 S23G36    29.65S
SIOUX FALLS    CLOUDY    61  49  64 W22G29    29.58
PIERRE         LGT RAIN  47  42  83 NW14      29.74F
RAPID CITY     CLOUDY    52  22  30 NW17      29.83R
BISMARCK       CLOUDY    51  41  68 W17G29    29.61R
KANSAS CITY    MOSUNNY   72  63  73 S29G38    29.80F
HILL CITY      CLOUDY    62  34  35 NW28G45   29.84R
WICHITA        CLOUDY    75  66  73 S30G39    29.77F
DODGE CITY     PTSUNNY   65  29  25 N25G37    29.84R
OKLAHOMA CITY  PTSUNNY   73  65  75 S21G28    29.87R
DALLAS         PTSUNNY   79  68  69 S17       29.91F
AMARILLO       MOSUNNY   74  43  32 W16G29    29.85S
$$




USA.gov is the U.S. government's official web portal to all federal, state and local government web resources and services.